Modesto, CA

2:08 AM PST on December 16, 2017 (GMT -0800)
Modesto City-County-Sham

Weather History for KMOD - March, 2014

Change the Weather History Date:

Friday, March 7, 2014

  Actual Average Record
Temperature  
Mean Temperature 59 °F -  
Max Temperature 69 °F 68 °F 83 °F (1993)
Min Temperature 49 °F 46 °F 30 °F (1956)
Degree Days  
Heating Degree Days 6 8  
Month to date heating degree days 43 62  
Since 1 July heating degree days 1741 1830  
Cooling Degree Days 0 0  
Month to date cooling degree days 0 0  
Year to date cooling degree days 0 0  
Growing Degree Days 8 (Base 50)    
Moisture  
Dew Point 46 °F    
Average Humidity 64    
Maximum Humidity 86    
Minimum Humidity 42    
Precipitation  
Precipitation 0.00 in 0.07 in 1.12 in (1935)
Month to date precipitation 0.51 0.55  
Year to date precipitation 3.43 5.54  
Since 1 July precipitation 4.92  
Snow  
Snow 0.00 in - - ()
Month to date snowfall 0.0  
Since 1 July snowfall 0.0  
Snow Depth -    
Sea Level Pressure  
Sea Level Pressure 30.12 in    
Wind  
Wind Speed 9 mph (NW)    
Max Wind Speed 20 mph    
Max Gust Speed 26 mph    
Visibility 10 miles    
Events      
T = Trace of Precipitation, MM = Missing Value Source: NWS Daily Summary

Daily Weather History Graph

Daily Weather History Graph

Search for Another Location

Airport or City:

Trip Planner

Search our weather history database for the weather conditions in past years. The results will help you decide how hot, cold, wet, or windy it might be!

Date:

Astronomy

Mar. 07, 2014 Rise Set
Actual Time 6:26 AM PST 6:03 PM PST
Civil Twilight 6:00 AM PST 6:29 PM PST
Nautical Twilight 5:30 AM PST 7:00 PM PST
Astronomical Twilight 4:59 AM PST 7:30 PM PST
Moon 10:30 AM PST (3/7) 12:06 AM PST (3/7)
Length of Visible Light 12h 29m
Length of Day
11h 37m
Waxing Crescent, 43% of the Moon is Illuminated
Mar 7
Waxing Crescent
Mar 8
First Quarter
Mar 16
Full
Mar 23
Last Quarter
Mar 30
New

Hourly Weather History & Observations

Time (PST) Temp. Dew Point Humidity Pressure Visibility Wind Dir Wind Speed Gust Speed Precip Events Conditions
12:53 AM 54.0 °F 46.0 °F 75% 30.14 in 10.0 mi WNW 11.5 mph - N/A   Clear
1:53 AM 54.0 °F 46.0 °F 75% 30.12 in 10.0 mi NW 12.7 mph - N/A   Clear
2:53 AM 53.1 °F 45.0 °F 74% 30.12 in 10.0 mi NW 8.1 mph - N/A   Clear
3:53 AM 52.0 °F 45.0 °F 77% 30.12 in 10.0 mi NNW 8.1 mph - N/A   Clear
4:53 AM 50.0 °F 46.0 °F 86% 30.11 in 10.0 mi NW 8.1 mph - N/A   Clear
5:53 AM 48.9 °F 45.0 °F 86% 30.12 in 10.0 mi West 9.2 mph - N/A   Clear
6:53 AM 48.9 °F 45.0 °F 86% 30.12 in 10.0 mi WNW 10.4 mph - N/A   Clear
7:53 AM 53.1 °F 45.0 °F 74% 30.14 in 10.0 mi WNW 13.8 mph - N/A   Clear
8:53 AM 55.9 °F 44.1 °F 64% 30.14 in 10.0 mi NW 16.1 mph - N/A   Clear
9:53 AM 57.0 °F 44.1 °F 62% 30.15 in 10.0 mi WNW 17.3 mph 23.0 mph N/A   Clear
10:53 AM 61.0 °F 45.0 °F 56% 30.16 in 10.0 mi NW 17.3 mph - N/A   Clear
11:53 AM 63.0 °F 45.0 °F 52% 30.14 in 10.0 mi NNW 6.9 mph 19.6 mph N/A   Clear
12:53 PM 64.9 °F 46.0 °F 50% 30.12 in 10.0 mi NW 10.4 mph - N/A   Clear
1:53 PM 66.0 °F 45.0 °F 47% 30.11 in 10.0 mi NW 11.5 mph - N/A   Clear
2:53 PM 68.0 °F 45.0 °F 43% 30.10 in 10.0 mi Calm Calm - N/A   Clear
3:53 PM 68.0 °F 45.0 °F 43% 30.09 in 10.0 mi NE 8.1 mph - N/A   Clear
4:53 PM 68.0 °F 46.9 °F 47% 30.08 in 10.0 mi ENE 3.5 mph - N/A   Clear
5:53 PM 63.0 °F 48.9 °F 60% 30.08 in 10.0 mi ESE 9.2 mph - N/A   Clear
6:53 PM 60.1 °F 48.9 °F 67% 30.09 in 10.0 mi Calm Calm - N/A   Clear
7:53 PM 57.9 °F 48.9 °F 72% 30.10 in 10.0 mi Calm Calm - N/A   Clear
8:53 PM 54.0 °F 48.0 °F 80% 30.11 in 10.0 mi Calm Calm - N/A   Clear
9:53 PM 53.1 °F 48.0 °F 83% 30.12 in 10.0 mi Calm Calm - N/A   Clear
10:53 PM 51.1 °F 46.9 °F 86% 30.13 in 10.0 mi ESE 4.6 mph - N/A   Clear
11:53 PM 51.1 °F 46.9 °F 86% 30.12 in 10.0 mi SE 3.5 mph - N/A   Clear